Weather History for College Park, MD

Change the Weather History Date:

Friday, January 11, 2013

  Actual Average Record
Temperature  
Mean Temperature 40 °F -  
Max Temperature 47 °F 39 °F 74 °F (1975)
Min Temperature 33 °F 24 °F 2 °F (1982)
Degree Days  
Heating Degree Days 25    
Moisture  
Dew Point 39 °F    
Average Humidity 89    
Maximum Humidity 100    
Minimum Humidity 66    
Precipitation  
Precipitation 0.00 in - - ()
Sea Level Pressure  
Sea Level Pressure 30.31 in    
Wind  
Wind Speed 0 mph (SE)    
Max Wind Speed 6 mph    
Max Gust Speed -    
Visibility 7 miles    
Events      
Averages and records for this station are not official NWS values.
T = Trace of Precipitation, MM = Missing Value Source: NWS Daily Summary

Daily Weather History Graph

Daily Weather History Graph

Search for Another Location

Airport:

Trip Planner

Search our weather history database for the weather conditions in past years. The results will help you decide how hot, cold, wet, or windy it might be!

Date:

Astronomy

Jan. 11, 2013 Rise Set
Actual Time 7:26 AM EST 5:05 PM EST
Civil Twilight 6:56 AM EST 5:35 PM EST
Nautical Twilight 6:23 AM EST 6:08 PM EST
Astronomical Twilight 5:51 AM EST 6:40 PM EST
Moon 6:57 AM EST (1/11) 5:20 PM EST (1/11)
Length of Visible Light 10h 38m
Length of Day
9h 39m
Waning Crescent, 0% of the Moon is Illuminated
Jan 11
Waning Crescent
Jan 11
New
Jan 18
First Quarter
Jan 26
Full
Feb 3
Last Quarter

Hourly Weather History & Observations

Time (EST) Temp. Windchill Dew Point Humidity Pressure Visibility Wind Dir Wind Speed Gust Speed Precip Events Conditions
12:10 AM 40.1 °F - 35.4 °F 83% 30.51 in 10.0 mi Calm Calm - N/A   Clear
12:35 AM 41.0 °F - 34.9 °F 79% 30.51 in 10.0 mi Calm Calm - N/A   Clear
1:40 AM 39.2 °F - 34.5 °F 83% 30.51 in 10.0 mi Calm Calm - N/A   Clear
2:00 AM 38.3 °F - 34.2 °F 85% 30.50 in 10.0 mi Calm Calm - N/A   Clear
2:20 AM 38.1 °F - 35.6 °F 91% 30.50 in 10.0 mi Calm Calm - N/A   Clear
2:40 AM 37.6 °F - 34.3 °F 88% 30.49 in 10.0 mi Calm Calm - N/A   Clear
3:05 AM 36.5 °F - 33.8 °F 90% 30.48 in 10.0 mi Calm Calm - N/A   Clear
3:25 AM 36.3 °F - 33.3 °F 89% 30.48 in 10.0 mi Calm Calm - N/A   Clear
3:45 AM 36.3 °F - 32.7 °F 87% 30.48 in 10.0 mi Calm Calm - N/A   Clear
4:05 AM 35.6 °F - 34.0 °F 94% 30.47 in 10.0 mi Calm Calm - N/A   Clear
4:30 AM 35.2 °F - 32.9 °F 91% 30.46 in 10.0 mi Calm Calm - N/A   Clear
4:50 AM 35.1 °F - 32.9 °F 92% 30.46 in 10.0 mi Calm Calm - N/A   Clear
5:10 AM 35.2 °F - 32.7 °F 91% 30.46 in 10.0 mi Calm Calm - N/A   Clear
5:30 AM 35.8 °F - 32.9 °F 89% 30.44 in 10.0 mi Calm Calm - N/A   Clear
5:55 AM 36.5 °F - 33.8 °F 90% 30.45 in 10.0 mi Calm Calm - N/A   Clear
6:15 AM 35.2 °F - 32.5 °F 90% 30.44 in 10.0 mi Calm Calm - N/A   Clear
6:35 AM 34.7 °F - 32.0 °F 90% 30.44 in 10.0 mi Calm Calm - N/A   Clear
6:55 AM 33.6 °F - 31.8 °F 93% 30.43 in 10.0 mi Calm Calm - N/A   Scattered Clouds
7:20 AM 33.8 °F - 32.0 °F 93% 30.42 in 10.0 mi Calm Calm - N/A   Scattered Clouds
7:40 AM 36.3 °F - 34.0 °F 91% 30.44 in 10.0 mi Calm Calm - N/A   Mostly Cloudy
8:00 AM 36.7 °F - 35.4 °F 95% 30.43 in 10.0 mi Calm Calm - N/A   Overcast
8:20 AM 37.9 °F - 36.0 °F 93% 30.42 in 10.0 mi Calm Calm - N/A   Overcast
8:45 AM 40.1 °F 38.0 °F 35.4 °F 83% 30.41 in 10.0 mi NNE 3.5 mph - N/A   Overcast
9:05 AM 40.3 °F - 34.7 °F 80% 30.41 in 10.0 mi Calm Calm - N/A   Mostly Cloudy
9:45 AM 41.9 °F - 36.0 °F 79% 30.39 in 10.0 mi Calm Calm - N/A   Overcast
10:10 AM 43.9 °F - 36.5 °F 75% 30.39 in 10.0 mi Calm Calm - N/A   Overcast
10:50 AM 45.5 °F - 34.7 °F 66% 30.37 in 10.0 mi Calm Calm - N/A   Overcast
11:10 AM 45.7 °F - 34.9 °F 66% 30.35 in 10.0 mi Calm Calm - N/A   Overcast
11:35 AM 46.0 °F 44.8 °F 35.4 °F 66% 30.33 in 10.0 mi SE 3.5 mph - N/A   Overcast
11:45 AM 46.4 °F 44.3 °F 35.4 °F 66% 30.32 in 10.0 mi ESE 4.6 mph - N/A   Overcast
12:15 PM 46.9 °F - 36.5 °F 67% 30.30 in 10.0 mi SE 4.6 mph - N/A   Overcast
12:35 PM 47.7 °F - 38.1 °F 70% 30.28 in 10.0 mi SE 5.8 mph - N/A   Overcast
1:00 PM 47.3 °F - 38.5 °F 71% 30.27 in 10.0 mi SE 4.6 mph - N/A   Overcast
1:20 PM 47.3 °F - 39.2 °F 73% 30.25 in 10.0 mi SE 3.5 mph - N/A   Overcast
2:00 PM 47.5 °F - 40.3 °F 76% 30.24 in 10.0 mi Calm Calm - N/A   Overcast
2:45 PM 47.3 °F - 41.5 °F 80% 30.22 in 10.0 mi SSE 3.5 mph - N/A   Overcast
3:05 PM 46.9 °F - 42.3 °F 84% 30.21 in 7.0 mi SE 3.5 mph - N/A   Overcast
3:50 PM 45.1 °F - 44.6 °F 98% 30.20 in 1.5 mi Calm Calm - N/A   Overcast
4:10 PM 44.8 °F - 44.8 °F 100% 30.19 in 1.2 mi Calm Calm - N/A   Overcast
4:30 PM 44.8 °F - 44.8 °F 100% 30.19 in 1.2 mi Calm Calm - N/A   Overcast
4:50 PM 44.6 °F - 44.6 °F 100% 30.17 in 0.8 mi Calm Calm - N/A   Overcast
5:15 PM 44.6 °F - 44.6 °F 100% 30.16 in 1.2 mi Calm Calm - N/A   Overcast
5:55 PM 44.4 °F - 44.4 °F 100% 30.15 in 1.2 mi Calm Calm - N/A   Overcast
6:20 PM 44.6 °F - 44.6 °F 100% 30.16 in 1.2 mi Calm Calm - N/A   Overcast
6:40 PM 44.6 °F - 44.6 °F 100% 30.15 in 1.2 mi Calm Calm - N/A   Overcast
7:00 PM 44.6 °F - 44.6 °F 100% 30.15 in 1.2 mi Calm Calm - N/A   Overcast
7:20 PM 44.6 °F - 44.6 °F 100% 30.15 in 1.2 mi Calm Calm - N/A   Overcast
7:45 PM 44.6 °F - 44.6 °F 100% 30.14 in 1.2 mi Calm Calm - N/A   Overcast
8:05 PM 44.6 °F - 44.6 °F 100% 30.13 in 1.2 mi Calm Calm - N/A   Overcast
8:25 PM 44.6 °F - 44.6 °F 100% 30.13 in 1.5 mi Calm Calm - N/A   Overcast
8:45 PM 44.6 °F - 44.6 °F 100% 30.14 in 1.2 mi Calm Calm - N/A   Overcast
9:10 PM 44.8 °F - 44.8 °F 100% 30.12 in 1.8 mi Calm Calm - N/A   Overcast
9:30 PM 44.8 °F - 44.8 °F 100% 30.13 in 1.5 mi Calm Calm - N/A   Overcast
9:50 PM 44.8 °F - 44.8 °F 100% 30.12 in 1.8 mi Calm Calm - N/A   Overcast
10:10 PM 45.0 °F - 45.0 °F 100% 30.12 in 1.5 mi Calm Calm - N/A   Overcast
10:35 PM 45.5 °F - 45.5 °F 100% 30.12 in 2.5 mi Calm Calm - N/A   Overcast
10:55 PM 45.7 °F - 45.7 °F 100% 30.12 in 4.0 mi Calm Calm - N/A   Overcast
11:15 PM 45.9 °F - 45.9 °F 100% 30.12 in 5.0 mi Calm Calm - N/A   Overcast
11:35 PM 45.9 °F 43.6 °F 45.9 °F 100% 30.11 in 4.0 mi WNW 4.6 mph - N/A   Overcast